Theta_e
311 311 312 311 312 312 312 310 308 307 306 305 303 303 303 304 308 308 307 306 306 306 306 306 306 306 313 315 313 312 310 310 314 314 315 316 317 317 317 317 317 319 317 316 316 316 316
311 312 311 312 312 312 312 312 311 310 309 305 302 302 302 302 303 308 307 307 307 307 306 305 306 306 313 313 310 315 312 311 314 314 314 315 317 316 318 317 318 319 318 318 317 317 315
311 313 312 312 312 312 313 312 313 313 313 312 309 303 303 302 301 308 308 309 308 308 308 305 306 311 311 311 312 315 311 313 313 314 314 315 316 317 317 318 318 317 319 318 316 315 314
312 312 312 312 313 313 313 313 313 314 315 312 306 303 303 303 301 309 309 308 307 308 308 305 306 311 312 309 313 313 314 313 313 314 315 315 315 317 318 318 319 317 316 318 317 315 314
312 312 313 312 311 309 311 312 311 310 312 308 305 303 303 303 302 309 308 307 308 308 306 306 311 312 312 309 313 313 313 312 313 314 315 315 316 319 318 319 318 318 317 316 316 315 314
314 313 312 310 311 312 312 311 309 310 309 307 306 305 305 304 303 309 307 306 308 309 309 310 310 311 311 312 312 312 312 312 313 314 317 318 318 320 319 316 315 315 315 315 316 315 314
312 312 311 310 310 310 310 309 308 308 307 307 305 305 305 305 304 308 307 310 312 314 311 312 313 312 310 310 309 311 311 313 314 314 316 315 316 319 314 314 313 313 315 315 315 313 312
309 309 308 308 307 307 306 306 305 305 305 304 303 302 304 305 305 307 310 311 311 310 313 312 310 309 309 309 310 311 311 314 314 316 314 315 318 314 312 312 313 314 315 315 313 312 312
307 306 305 305 304 305 304 303 304 304 304 302 298 299 300 305 306 309 310 309 309 310 315 314 310 309 310 309 311 312 313 313 314 315 315 315 314 312 312 313 314 314 314 313 313 313 315
304 304 303 302 303 302 302 302 302 302 302 300 297 297 298 302 309 307 311 308 309 310 320 317 313 312 311 311 312 311 312 313 313 314 313 314 313 312 312 313 313 313 313 313 313 315 319
301 301 302 302 301 301 301 301 301 302 302 301 300 295 297 301 311 309 310 308 309 312 333 315 313 309 311 312 312 313 311 312 314 314 312 315 313 312 314 313 313 312 313 313 313 315 317
301 301 301 300 300 300 300 301 301 301 301 300 296 296 297 309 310 309 308 309 312 324 331 314 312 313 313 312 313 312 312 311 312 313 313 313 312 312 312 312 312 312 313 314 314 315 324
301 300 300 300 300 300 300 300 300 300 300 299 295 295 299 307 311 308 309 313 318 322 312 311 313 312 313 314 313 313 314 315 314 318 317 314 312 310 310 313 312 312 313 319 318 322 315
301 300 300 299 299 299 300 299 300 300 300 296 294 299 306 308 308 308 311 311 313 310 309 311 312 312 314 312 312 313 313 314 313 313 314 318 321 311 312 312 313 312 313 315 310 311 312
300 299 299 299 299 299 299 299 299 299 298 296 298 306 308 308 308 309 312 314 311 308 308 311 311 311 309 313 312 312 313 313 310 312 311 312 311 309 310 310 311 314 314 313 312 312 315
298 299 298 298 298 299 299 299 299 299 297 297 303 307 308 306 307 310 311 310 307 307 309 309 307 307 307 308 311 311 308 310 311 310 309 310 309 310 309 310 310 312 311 314 315 316 311
298 299 298 299 299 299 299 299 298 299 297 299 305 306 307 307 308 311 310 310 308 309 310 310 308 308 307 307 307 307 307 308 308 309 309 310 310 309 309 310 311 312 312 312 312 312 311
299 299 299 299 299 299 299 299 298 298 297 301 303 307 306 307 311 310 310 309 308 310 308 309 310 310 309 308 308 308 308 308 307 309 309 309 310 309 307 308 307 309 310 311 313 312 310
299 300 299 299 299 299 299 298 298 296 297 302 304 305 306 307 308 309 308 308 307 307 308 308 309 308 308 309 308 307 307 307 307 308 310 309 310 310 309 309 308 308 309 309 310 311 311
298 298 298 298 298 298 298 297 295 294 294 302 304 306 305 306 305 306 306 306 308 306 308 306 305 307 307 307 307 308 308 308 308 307 308 306 309 309 309 308 309 310 310 310 310 313 312
298 298 298 298 298 297 297 297 297 294 294 299 301 302 299 303 304 300 301 304 305 305 306 305 307 304 304 308 309 309 309 307 308 307 307 307 310 310 309 309 308 309 309 309 309 309 310
297 297 297 297 297 297 297 297 297 294 295 296 299 297 297 297 297 300 301 303 302 301 302 303 303 301 300 302 304 305 304 304 306 307 308 307 310 309 309 308 308 309 309 308 309 309 309
296 296 296 296 296 296 295 295 296 296 296 297 296 296 297 298 297 297 298 299 299 297 298 300 300 298 298 298 297 297 297 297 299 303 305 307 309 310 311 308 309 310 308 308 308 308 308
295 295 295 295 294 294 294 294 295 295 295 296 296 296 296 297 296 296 295 295 295 294 296 296 295 294 296 295 294 294 295 295 296 296 298 300 303 307 308 307 308 306 306 307 307 307 307
294 294 294 294 293 293 293 294 294 294 294 295 296 296 296 296 295 295 295 295 295 295 294 295 295 296 294 293 293 294 295 299 300 297 297 298 299 300 304 305 304 304 304 305 307 307 306
294 294 294 294 293 294 294 294 295 295 294 294 294 293 294 296 295 294 294 294 295 295 295 295 294 293 293 293 293 294 296 297 298 303 303 302 299 299 300 303 303 308 306 306 306 307 304
295 295 295 295 294 294 295 294 294 294 295 294 294 294 294 294 294 294 294 295 294 294 295 294 294 294 293 294 293 293 294 295 296 296 301 304 303 302 301 302 303 304 304 304 308 306 302
293 293 293 293 293 294 294 294 294 294 295 294 294 294 294 294 294 294 294 294 294 294 295 294 294 294 293 294 294 295 298 298 297 297 297 300 302 304 304 305 305 298 303 306 301 298 296
292 292 292 292 292 293 293 294 294 294 294 294 294 294 294 293 294 293 293 294 294 294 295 295 294 294 293 293 292 293 293 293 292 292 293 292 298 296 295 302 298 296 295 295 294 293 294
Wind_Speed
11 11 11 11 12 13 14 15 16 16 16 17 18 19 20 20 18 17 14 13 12 11 10 9 8 7 5 5 3 4 2 1 2 3 5 5 4 5 4 4 6 9 7 9 12 14 15
11 10 11 12 13 14 15 15 16 16 18 18 18 20 21 21 20 19 14 13 12 11 9 8 6 5 5 7 2 6 3 1 2 3 3 4 3 5 4 5 5 7 13 18 13 9 11
11 11 12 14 15 16 16 18 19 19 19 20 19 18 20 21 22 17 14 15 14 12 9 5 4 3 6 7 2 5 3 2 2 3 4 1 1 5 5 5 3 9 12 13 6 4 7
14 14 14 14 15 15 16 16 17 19 19 20 19 18 19 21 21 15 15 17 14 8 5 3 2 3 5 3 3 4 4 3 1 1 1 1 2 4 4 6 4 5 4 10 2 2 1
13 12 12 11 12 13 16 16 17 18 20 20 19 19 20 22 22 15 18 15 7 2 1 1 1 3 4 1 3 4 5 4 3 2 1 2 3 3 3 6 8 5 11 13 10 5 3
12 10 10 13 14 15 16 18 19 20 21 21 21 22 22 23 23 16 18 9 5 2 1 1 2 4 4 0 3 3 3 4 4 3 4 4 4 6 6 5 6 11 14 13 13 6 10
12 12 13 14 16 16 17 18 20 21 22 23 21 21 20 22 20 16 16 6 4 4 4 6 3 4 2 2 2 4 3 4 4 5 4 4 5 8 2 3 7 11 12 14 16 8 7
14 15 16 17 18 18 19 19 21 22 23 23 22 22 22 21 16 12 9 4 4 4 10 6 9 8 8 2 3 6 6 4 4 7 2 5 8 3 2 4 7 10 13 14 8 1 9
13 14 15 16 17 18 19 20 21 22 23 24 23 22 22 19 9 6 6 4 3 2 6 3 3 3 1 7 4 6 8 2 6 8 8 9 6 2 4 6 9 12 12 13 12 17 6
12 14 15 16 16 19 20 21 23 24 24 25 24 20 20 18 2 8 2 5 3 3 4 4 3 2 3 2 4 2 6 3 4 5 5 10 1 5 6 11 6 11 4 9 15 9 5
13 14 15 16 17 19 21 22 23 24 26 27 25 20 17 9 8 4 3 5 3 3 5 2 4 3 2 5 2 5 1 3 9 5 3 3 4 7 8 7 5 6 9 12 10 8 5
13 13 14 16 18 19 22 24 25 26 27 28 28 20 15 4 5 4 5 4 3 2 7 3 4 4 4 7 5 4 4 3 3 6 11 17 2 5 3 3 7 9 9 13 7 5 4
13 13 15 16 19 21 23 25 27 28 29 30 25 16 8 4 4 6 6 4 3 4 2 5 5 6 7 7 6 8 6 7 6 2 6 5 8 4 4 5 5 7 9 4 3 4 7
13 13 15 17 19 21 24 26 28 30 32 32 20 7 2 1 4 4 3 4 7 7 12 5 3 3 6 3 7 6 5 7 13 12 8 5 6 9 10 4 3 2 3 3 5 8 13
13 14 16 17 20 22 25 28 32 35 38 29 13 4 3 7 5 2 4 5 4 4 6 7 6 8 13 6 5 5 9 11 9 13 8 4 7 4 2 1 2 4 5 3 5 3 4
12 14 15 18 21 24 26 28 31 35 35 23 6 2 6 10 2 3 4 4 5 6 9 7 9 10 15 12 4 5 7 0 2 4 2 2 8 2 4 2 2 4 2 3 3 4 8
12 14 16 18 20 23 26 29 32 36 36 17 3 1 7 8 2 3 4 5 4 5 7 5 10 15 17 17 15 15 10 1 4 1 4 5 5 3 4 7 6 4 4 5 4 3 4
11 13 15 17 19 22 26 29 33 35 35 14 4 2 9 5 3 2 4 4 5 6 5 5 5 9 11 13 15 16 14 9 7 3 3 1 6 11 16 2 2 4 7 8 7 6 6
11 13 15 17 19 21 23 27 30 34 31 11 4 2 4 5 3 3 3 6 4 6 6 5 5 5 5 5 6 6 5 4 7 3 4 2 5 8 7 4 3 5 6 9 8 5 11
11 12 14 15 18 19 22 25 27 31 28 8 4 3 2 3 2 3 5 5 3 3 4 5 6 7 8 11 11 9 8 2 8 3 5 2 8 13 13 14 7 7 5 7 9 9 13
11 12 14 14 16 18 21 23 25 27 25 8 5 3 3 4 2 8 6 5 8 6 2 2 3 5 5 5 10 10 4 9 4 3 1 3 10 12 15 14 15 16 18 17 18 19 17
10 12 12 14 15 17 19 21 24 26 20 12 4 4 4 6 6 7 2 1 7 7 4 6 6 8 10 8 11 14 13 10 10 4 4 2 9 10 16 14 15 18 18 20 22 22 23
10 11 12 14 15 16 17 19 20 23 17 8 6 4 4 4 4 6 3 3 4 8 8 7 7 13 14 12 11 15 15 16 17 16 13 9 6 6 17 11 13 16 21 23 22 19 16
9 10 12 12 13 14 15 16 16 17 14 6 4 4 4 6 4 6 7 10 14 13 13 15 15 14 6 14 18 18 20 23 24 23 19 15 13 8 10 9 14 11 5 4 7 11 10
9 10 11 12 13 13 14 15 15 15 14 9 4 4 3 7 8 12 13 7 12 12 11 11 14 8 12 13 9 9 7 9 13 23 22 19 14 8 7 9 16 19 13 14 6 8 16
9 10 12 12 13 14 14 14 14 13 12 10 8 2 1 4 2 10 11 14 10 11 13 9 6 10 7 5 6 7 5 6 4 2 2 10 16 11 7 13 6 7 8 7 4 6 14
11 11 12 14 14 14 15 14 14 14 14 11 7 7 5 5 10 9 6 8 9 11 8 13 6 6 3 4 8 9 12 11 6 7 2 4 4 15 13 12 8 11 11 6 5 5 15
11 12 13 14 15 16 15 15 14 14 14 13 12 9 8 4 12 20 18 17 11 10 10 4 5 5 5 5 5 5 4 5 5 8 7 5 3 6 10 10 16 17 7 8 8 13 16
12 13 14 15 16 16 17 15 16 16 14 15 12 11 10 8 9 24 27 26 27 28 14 5 8 12 4 4 4 7 10 11 15 13 11 7 3 5 5 5 19 15 13 14 16 17 17
Wind_Direction
52 49 39 35 30 27 25 23 22 20 17 13 11 9 7 2 356 348 338 333 327 326 320 310 308 316 326 252 264 172 174 331 351 349 10 358 343 329 310 306 302 243 280 298 290 288 282
50 43 40 34 33 25 23 21 16 15 11 8 8 6 2 359 353 346 338 333 325 318 315 310 305 318 274 262 124 155 172 318 305 316 348 336 352 333 280 285 278 333 295 291 288 281 286
48 45 41 36 31 25 19 16 10 5 1 357 357 1 358 354 349 347 340 331 321 307 302 300 295 316 255 269 165 177 196 234 268 290 310 313 311 287 343 277 338 291 302 288 242 256 288
57 46 38 32 25 17 11 7 4 1 357 354 352 354 352 350 346 340 337 329 319 305 278 275 270 269 266 236 187 206 211 238 228 252 285 220 268 287 252 323 242 275 271 326 323 192 171
42 35 35 30 12 5 6 5 360 357 354 351 349 348 347 347 344 338 334 332 332 346 220 212 275 256 268 274 219 207 205 258 205 167 219 181 236 285 215 282 266 205 315 321 327 190 295
55 41 24 14 17 13 10 6 3 359 354 352 353 349 347 346 345 339 336 335 326 35 66 173 231 258 202 115 148 167 199 205 237 213 215 225 231 257 219 270 319 310 313 312 316 296 302
38 35 28 23 20 17 13 5 0 356 352 348 348 346 345 344 346 344 349 321 257 191 211 248 319 293 204 147 204 205 181 193 234 235 260 168 258 244 343 298 294 298 296 298 315 355 315
41 34 27 22 17 12 8 3 358 353 348 343 341 340 341 344 342 351 4 31 33 330 304 239 254 264 254 259 260 191 175 226 214 263 234 226 253 72 76 274 269 283 291 297 319 52 303
35 31 24 19 12 12 6 360 356 353 348 345 341 338 336 341 341 13 35 39 321 315 268 185 209 246 257 193 240 180 188 195 250 267 237 257 324 164 267 270 267 275 293 312 309 318 252
32 28 26 21 14 7 4 359 355 352 347 343 341 338 337 339 12 338 15 347 334 306 282 179 186 133 160 246 249 157 203 254 229 273 284 264 119 216 252 269 259 292 26 308 309 318 320
33 28 25 24 12 9 4 2 357 352 347 343 340 335 333 336 303 309 331 333 317 256 320 126 154 124 150 233 26 173 205 208 254 247 225 277 220 230 250 273 183 282 327 303 301 279 307
40 33 28 20 13 8 6 1 357 352 348 342 337 333 329 346 282 310 320 320 280 257 243 193 154 187 196 196 199 141 195 225 320 280 239 262 118 256 250 212 234 301 290 272 261 262 251
40 34 24 15 12 9 4 359 355 351 346 340 335 331 321 299 345 322 323 254 254 232 267 191 218 196 218 202 201 197 194 206 232 253 243 189 218 204 221 243 202 243 284 308 282 239 290
41 32 22 16 12 8 3 358 354 350 346 344 341 357 337 19 298 289 297 237 243 263 271 58 343 252 250 232 220 202 232 254 227 250 285 271 266 192 175 244 323 287 290 267 295 313 308
42 28 22 18 11 7 3 359 354 350 350 346 359 24 50 343 341 205 212 223 253 279 353 327 289 259 264 227 273 223 233 250 274 195 230 258 242 128 204 184 255 145 224 31 275 240 272
34 28 21 18 13 8 4 1 356 352 353 347 355 23 21 339 333 238 226 248 260 356 344 312 281 281 283 285 228 222 270 37 234 244 205 326 283 152 107 187 216 263 100 225 194 274 288
28 21 16 11 8 4 4 3 360 355 354 7 6 237 358 346 347 215 220 240 299 335 352 310 304 289 285 285 291 278 271 0 353 120 242 304 238 204 168 209 254 169 212 228 294 256 278
26 18 7 4 1 0 2 2 1 359 358 5 338 282 350 351 235 265 266 346 339 315 335 293 284 286 280 293 287 273 273 292 4 330 255 316 300 267 268 87 335 291 265 245 239 219 237
17 13 13 11 8 5 1 359 359 2 4 339 346 323 354 325 284 247 309 281 283 319 332 323 300 356 328 290 299 291 306 31 13 304 344 46 241 283 254 192 170 232 227 241 266 287 257
10 2 2 6 9 8 7 3 360 2 2 352 312 314 33 64 42 335 340 291 292 318 271 333 313 303 322 280 266 273 283 45 337 352 1 300 259 255 270 295 334 275 214 225 255 263 263
17 16 16 19 16 11 10 9 5 6 4 357 3 26 359 320 126 322 289 279 297 293 293 332 197 35 348 287 307 265 344 326 271 2 248 277 264 270 278 286 289 281 277 274 263 253 253
26 21 17 18 15 13 11 12 10 7 17 48 12 350 337 292 302 289 202 155 291 307 282 277 295 326 308 272 275 287 308 301 279 303 308 218 275 279 274 269 261 273 270 263 259 260 264
19 12 7 7 6 5 3 6 10 10 24 37 20 349 292 283 298 285 312 338 309 320 274 270 303 310 294 309 318 293 280 270 268 275 282 280 273 278 269 286 307 278 257 250 255 258 265
6 3 359 2 3 360 359 360 0 9 17 13 20 319 308 293 296 301 296 296 290 281 272 290 295 289 322 324 305 283 258 254 251 249 240 245 249 248 278 288 264 266 281 280 296 312 284
0 356 354 353 351 347 351 352 354 2 3 356 338 329 314 286 306 291 288 272 301 277 266 273 291 300 323 304 294 292 261 231 245 241 234 229 236 257 241 227 270 295 282 272 187 45 18
348 350 353 345 340 337 338 340 340 341 342 335 315 300 267 305 298 351 295 303 291 300 301 261 282 308 305 274 255 259 266 327 288 152 164 226 219 223 230 235 252 82 30 12 143 122 13
339 337 331 329 326 321 324 327 327 326 325 324 293 266 251 275 276 309 263 280 307 296 282 280 287 302 228 262 269 268 269 260 270 291 308 128 191 219 230 247 263 13 342 319 257 35 4
340 336 332 331 328 325 319 317 316 315 313 312 289 275 255 262 285 279 272 274 265 276 268 278 296 206 263 256 268 296 313 13 311 337 321 298 294 201 221 234 242 21 18 7 355 342 344
331 325 323 322 323 321 320 314 313 313 315 310 289 286 277 257 268 285 273 259 247 262 277 259 251 278 296 285 304 319 295 307 301 283 292 289 319 318 303 310 324 328 350 335 325 310 311